GFSFLT1_700_temp_162.txt.gz
Temp
7 7 6 6 6 6 6 5 5 4 4 4 3 3 3 3 3 3 3 3 3 3 2 2 2 1 1 1 1 1 1 2
7 6 6 6 6 6 5 5 4 4 3 3 3 3 3 3 3 3 3 3 2 2 2 1 1 0 0 0 0 0 0 0
7 6 6 6 5 5 5 4 3 3 3 3 2 2 2 3 3 3 2 2 2 1 1 1 0 -0 -0 -0 -1 -1 -1 -1
7 6 6 6 5 5 4 3 3 2 2 2 2 2 2 2 2 2 2 1 1 1 1 0 -1 -1 -1 -1 -1 -1 -1 -1
6 6 6 5 5 4 4 3 2 2 2 2 2 2 2 2 2 1 1 1 1 0 -0 -1 -1 -1 -1 -1 -1 -1 -2 -1
7 6 5 5 4 4 3 2 2 1 1 1 1 1 1 1 1 1 1 0 -0 -0 -1 -2 -2 -2 -2 -2 -2 -2 -2 -2
7 6 5 5 4 3 3 2 1 1 1 1 1 1 1 0 0 0 -0 -0 -1 -1 -2 -2 -2 -2 -2 -2 -2 -2 -3 -3
6 6 6 5 4 3 2 1 1 1 0 0 0 0 0 0 0 -1 -1 -1 -1 -2 -2 -3 -3 -3 -3 -2 -2 -2 -3 -3
7 6 5 5 4 2 1 1 0 -0 -0 -0 -0 -0 -0 -0 -1 -2 -2 -2 -2 -2 -3 -3 -3 -3 -3 -3 -3 -3 -3 -3
6 6 6 5 3 2 1 1 -0 -1 -1 -1 -1 -1 -1 -1 -2 -2 -2 -2 -2 -3 -4 -3 -3 -3 -3 -3 -3 -4 -3 -3
6 6 5 5 2 1 0 -0 -0 -1 -2 -2 -2 -1 -2 -2 -2 -2 -3 -3 -3 -4 -4 -4 -4 -4 -4 -3 -4 -4 -4 -4
5 5 5 4 2 0 0 -0 -1 -2 -3 -3 -2 -2 -2 -3 -3 -3 -3 -3 -4 -4 -4 -4 -4 -4 -4 -4 -4 -4 -4 -4
5 5 4 4 3 0 -1 -0 -2 -3 -4 -2 -2 -2 -3 -3 -3 -3 -3 -4 -4 -5 -5 -5 -5 -5 -4 -4 -5 -5 -5 -5
4 4 4 3 1 -1 -1 -2 -3 -3 -2 -2 -3 -3 -3 -3 -3 -4 -4 -4 -5 -5 -5 -5 -5 -5 -5 -5 -5 -5 -5 -5
3 3 3 2 -1 -1 -1 -2 -2 -2 -2 -2 -2 -2 -3 -3 -4 -4 -4 -5 -5 -6 -5 -5 -5 -6 -5 -5 -6 -6 -6 -5
3 3 2 1 -0 -1 -2 -1 -1 -1 -2 -2 -3 -3 -3 -4 -4 -4 -5 -5 -6 -6 -6 -6 -6 -6 -6 -6 -6 -6 -6 -6
1 1 1 0 0 -0 -1 -1 -2 -2 -2 -3 -3 -3 -3 -4 -4 -5 -5 -6 -6 -6 -6 -6 -6 -6 -6 -6 -6 -6 -6 -6
-1 -1 -0 -1 -0 -1 -2 -2 -2 -2 -3 -3 -3 -3 -4 -4 -5 -5 -6 -6 -6 -6 -6 -7 -7 -7 -7 -7 -7 -7 -7 -7
-0 -1 -1 -1 -2 -1 -2 -2 -2 -2 -2 -3 -3 -4 -4 -5 -5 -6 -6 -6 -7 -7 -7 -7 -7 -7 -7 -7 -7 -7 -7 -7

GFSFLT1_700_temp_168.txt.gz
Temp
8 8 8 8 8 8 8 7 7 7 6 6 6 5 5 5 4 4 4 4 4 4 4 4 4 4 3 3 2 2 2 2
5 5 7 8 8 8 8 7 7 6 6 6 5 5 5 4 4 4 3 3 3 3 3 3 3 3 3 2 2 1 1 1
5 5 6 8 8 8 8 7 6 6 5 5 5 5 4 4 4 3 3 3 3 3 3 3 3 2 2 1 1 1 0 0
7 5 7 7 8 7 7 7 6 5 5 5 5 4 4 3 3 3 3 3 3 3 3 2 2 1 1 1 0 -0 -0 -0
7 7 6 7 7 7 7 6 5 5 5 4 4 4 3 3 3 2 2 2 2 2 2 2 1 1 0 -0 -0 -1 -1 -1
7 7 6 6 6 6 6 6 5 5 4 4 3 3 3 2 2 2 2 2 2 2 1 1 1 0 -0 -1 -1 -1 -1 -2
8 7 6 6 6 5 5 5 4 4 3 3 3 3 2 2 2 1 1 2 1 1 1 0 -0 -1 -1 -1 -2 -2 -2 -2
7 7 7 6 5 5 5 5 4 4 3 3 3 2 2 1 1 1 1 0 1 0 0 -0 -1 -1 -2 -2 -2 -2 -3 -2
8 7 6 6 5 5 5 4 3 3 3 2 2 1 1 0 0 -0 -1 -1 -0 -0 -0 -1 -2 -2 -2 -3 -3 -3 -3 -3
7 6 6 5 5 4 4 3 3 2 2 1 1 1 0 -0 -1 -2 -2 -2 -1 -1 -1 -2 -2 -2 -3 -3 -3 -3 -3 -3
5 5 5 4 4 3 3 2 2 1 1 0 0 -0 -1 -2 -2 -2 -2 -1 -1 -1 -2 -2 -2 -3 -4 -4 -4 -4 -4 -4
5 4 4 3 3 3 3 2 2 0 0 -0 -0 -1 -2 -3 -3 -2 -2 -2 -2 -2 -2 -3 -3 -4 -4 -4 -4 -4 -4 -4
3 2 3 3 3 3 1 1 1 -0 -0 -1 -1 -3 -3 -3 -3 -3 -2 -2 -2 -3 -3 -3 -3 -4 -4 -4 -4 -4 -5 -5
2 2 2 2 2 2 0 -1 -0 -1 -1 -1 -3 -3 -3 -3 -4 -3 -3 -2 -3 -3 -4 -3 -4 -4 -4 -5 -5 -5 -5 -5
1 1 1 1 1 1 -0 -1 -2 -2 -2 -3 -4 -4 -4 -4 -4 -4 -3 -3 -3 -3 -3 -4 -4 -4 -5 -5 -5 -5 -5 -5
0 1 1 1 0 -0 -0 -1 -2 -3 -4 -5 -5 -4 -4 -4 -5 -4 -4 -3 -3 -3 -3 -4 -4 -5 -5 -5 -6 -6 -6 -6
0 0 1 1 1 1 1 -2 -3 -4 -6 -5 -5 -4 -4 -4 -5 -4 -4 -3 -3 -3 -4 -4 -5 -5 -5 -6 -6 -6 -6 -6
-0 -0 1 1 1 1 0 -1 -3 -4 -5 -5 -4 -5 -4 -4 -4 -4 -4 -4 -4 -4 -4 -5 -5 -6 -6 -6 -6 -7 -7 -7
0 0 0 1 1 1 -0 -2 -4 -4 -5 -5 -4 -4 -4 -4 -4 -4 -4 -4 -4 -4 -5 -5 -6 -6 -6 -7 -7 -7 -7 -7

GFSFLT1_700_temp_171.txt.gz
Temp
9 9 9 8 8 8 8 7 7 7 7 7 6 6 6 5 5 5 4 4 4 4 4 4 4 4 4 4 4 4 3 3
9 9 8 8 8 8 8 8 7 7 7 7 6 6 5 5 5 4 4 4 4 4 4 4 3 3 3 3 3 3 3 2
9 8 8 8 8 8 8 7 7 7 6 6 5 5 5 5 5 4 4 4 3 3 3 3 3 3 3 3 3 2 2 2
9 8 8 8 8 8 8 8 7 6 6 5 5 5 5 5 5 4 3 3 3 3 3 3 3 3 3 2 2 2 1 1
9 9 8 8 8 8 7 7 7 6 4 5 5 4 4 4 4 3 3 3 2 2 2 2 2 2 2 2 1 1 1 0
8 9 8 8 8 8 7 7 6 6 5 5 4 3 3 4 3 3 2 2 2 2 2 2 2 2 1 1 1 0 -0 -1
9 9 9 9 8 8 7 6 6 5 5 4 3 3 3 3 2 2 2 1 1 1 2 1 1 1 1 1 0 -0 -1 -2
9 9 8 8 8 8 7 6 5 5 4 3 3 3 2 1 2 1 1 1 0 1 1 1 1 0 0 -0 -0 -1 -2 -2
9 9 9 8 8 8 7 6 4 4 3 2 2 2 1 1 1 1 0 -0 -0 1 1 1 -0 -0 -0 -1 -1 -2 -3 -3
9 8 8 8 8 7 7 6 4 3 2 1 2 1 1 0 0 -0 -1 -1 -0 -1 -0 -0 -1 -1 -1 -2 -2 -3 -3 -3
8 7 7 7 7 6 5 4 3 3 2 2 1 -0 -0 -1 -1 -1 -2 -1 -2 -2 -2 -1 -1 -2 -2 -3 -3 -4 -4 -3
5 6 6 5 4 4 4 3 2 2 1 1 0 -1 -1 -2 -2 -2 -2 -2 -2 -3 -2 -2 -2 -2 -3 -3 -4 -4 -4 -4
2 2 3 4 4 3 3 2 2 1 -0 -0 -1 -1 -2 -3 -3 -3 -3 -2 -4 -2 -2 -2 -2 -3 -3 -4 -4 -4 -4 -4
1 -0 1 2 2 2 2 1 1 -0 -1 -1 -2 -3 -3 -4 -4 -3 -4 -3 -4 -2 -2 -3 -3 -3 -4 -4 -5 -5 -5 -5
-0 -1 -0 0 1 1 0 -1 -1 -1 -2 -2 -4 -4 -5 -5 -4 -4 -3 -4 -4 -3 -3 -3 -4 -4 -4 -5 -5 -5 -5 -5
2 1 -1 -0 -0 -0 0 -0 -1 -3 -3 -3 -5 -5 -5 -5 -4 -4 -4 -5 -5 -4 -3 -4 -4 -4 -5 -5 -5 -5 -6 -6
1 0 0 -0 -0 -1 -0 -1 -2 -2 -4 -4 -6 -6 -6 -4 -4 -4 -4 -5 -6 -4 -4 -4 -4 -5 -5 -6 -6 -6 -6 -6
-0 0 0 0 0 0 0 -0 -2 -2 -2 -4 -6 -6 -5 -4 -4 -4 -4 -5 -5 -5 -5 -5 -5 -5 -6 -6 -6 -6 -6 -6
-1 -0 -0 -0 0 0 -0 -0 -2 -4 -3 -3 -5 -6 -5 -4 -4 -5 -5 -5 -6 -5 -5 -5 -5 -5 -6 -6 -6 -7 -7 -7

GFSFLT1_700_temp_177.txt.gz
Temp
10 10 10 10 9 9 8 8 8 8 8 7 7 6 6 6 6 5 5 5 5 4 4 4 4 3 3 3 3 4 4 3
10 10 10 10 9 9 9 9 8 8 8 8 7 7 7 6 6 5 4 4 4 4 4 4 3 3 3 3 3 3 3 3
10 9 10 10 9 9 9 9 8 8 8 8 7 7 6 6 5 4 4 4 4 4 4 3 3 3 3 3 3 3 3 3
9 9 9 9 9 9 9 9 8 8 8 7 7 6 6 5 5 5 4 3 4 3 3 3 3 2 2 2 2 2 2 2
9 9 9 9 9 9 9 9 9 8 8 7 6 6 6 6 6 4 4 3 3 3 3 3 2 2 2 2 2 2 2 1
8 8 9 9 9 9 9 9 9 8 8 7 6 6 5 5 4 3 3 3 2 3 2 2 2 2 1 1 2 1 1 1
8 8 8 8 8 8 8 8 8 8 8 6 5 5 5 4 3 2 3 2 2 2 1 1 1 1 1 1 1 1 1 1
8 8 8 8 7 8 8 8 8 8 7 6 4 3 4 3 2 1 2 2 1 1 1 1 1 1 1 1 0 0 0 0
7 8 8 8 7 7 7 7 7 7 6 5 3 3 2 1 1 1 0 1 0 0 -0 -0 0 -0 -0 0 -0 -1 -0 -1
6 7 7 7 7 8 8 8 8 7 6 5 2 1 1 1 1 -1 -0 -1 -2 -1 -1 -1 -1 -1 -1 -1 -2 -2 -1 -1
5 6 7 7 8 8 8 8 8 7 5 3 2 1 1 -1 -2 -2 -1 -2 -4 -4 -2 -2 -2 -1 -1 -3 -2 -2 -2 -2
5 6 6 7 7 8 8 8 7 6 3 3 3 1 1 0 -4 -3 -3 -4 -5 -5 -3 -3 -3 -3 -3 -4 -3 -3 -2 -2
3 4 4 5 5 4 4 4 4 3 3 2 -0 -1 -0 -0 -2 -3 -3 -4 -4 -5 -4 -5 -4 -4 -4 -3 -3 -3 -3 -3
2 2 3 3 3 3 3 2 1 1 1 -0 -0 0 -0 -1 -3 -5 -4 -4 -4 -4 -5 -4 -4 -4 -4 -3 -3 -3 -3 -3
-0 1 2 2 2 2 2 1 0 -0 -0 -1 -1 -1 -1 -1 -3 -6 -5 -5 -6 -5 -4 -4 -5 -4 -4 -4 -4 -4 -4 -4
-0 1 1 1 0 1 1 0 -1 -1 -1 -1 -1 -1 -1 -2 -3 -6 -5 -6 -6 -5 -5 -4 -5 -5 -4 -4 -4 -4 -4 -4
-0 -1 -1 0 -0 -1 -0 -0 -1 -1 -2 -1 -1 -2 -2 -3 -3 -6 -6 -6 -5 -5 -4 -4 -5 -5 -4 -4 -5 -5 -5 -5
-1 -1 -1 -0 -1 -1 -1 -1 -1 -2 -2 -2 -2 -2 -3 -3 -3 -6 -7 -6 -5 -5 -5 -5 -5 -5 -5 -5 -5 -5 -5 -6
-0 -0 -1 -0 -1 -1 -1 -1 -1 -2 -2 -2 -3 -3 -3 -3 -4 -6 -7 -6 -5 -5 -5 -5 -5 -5 -5 -5 -5 -6 -6 -6

GFSFLT1_700_temp_180.txt.gz
Temp
9 9 9 9 9 9 9 9 8 7 7 7 7 7 6 6 6 6 6 5 5 5 5 5 4 4 3 3 3 3 3 4
9 9 9 9 10 10 9 9 9 8 8 8 7 8 7 6 6 6 5 4 5 4 4 4 4 4 3 3 3 3 3 3
10 10 10 10 10 10 9 9 9 9 8 8 7 7 7 6 5 5 5 4 4 4 4 4 4 3 3 3 3 3 3 3
10 10 9 9 9 9 9 9 9 9 9 8 7 7 6 6 5 5 5 4 3 3 4 3 4 3 3 2 2 2 2 2
10 9 9 9 9 9 9 9 9 9 9 8 8 7 7 6 6 5 4 3 3 3 3 2 2 2 2 2 2 2 2 2
9 9 8 9 9 9 9 9 9 9 9 8 7 7 6 6 6 4 3 3 2 2 2 2 2 2 2 1 2 1 2 1
8 7 7 7 7 8 8 8 8 8 8 8 7 7 6 5 5 4 3 2 2 2 2 2 1 1 1 1 1 1 1 1
5 6 6 6 6 6 7 7 8 8 8 8 7 6 5 3 3 3 2 2 2 1 1 1 0 0 1 0 0 0 0 -0
5 5 6 6 6 6 6 6 7 7 8 8 7 6 5 4 1 1 1 2 1 -1 -0 -1 -0 -1 -0 -0 -1 -2 -2 -1
3 4 4 6 6 6 6 5 6 7 7 7 6 6 5 3 1 0 1 0 -3 -2 -1 -1 -2 -2 -1 -1 -2 -1 -3 -2
2 3 4 6 5 5 6 6 6 6 6 7 6 5 4 2 1 1 -0 -1 -3 -4 -2 -2 -3 -2 -3 -4 -4 -3 -4 -3
2 3 3 5 6 5 5 6 7 6 6 6 4 3 2 1 1 0 0 -2 -5 -4 -3 -3 -5 -4 -3 -4 -4 -4 -4 -3
1 2 2 1 2 4 4 5 5 5 4 3 2 2 2 2 1 -1 -0 -2 -6 -4 -4 -4 -6 -5 -5 -5 -4 -4 -4 -3
-3 -2 -1 -1 -0 1 2 2 3 3 2 1 1 2 1 -0 -1 -0 -1 -2 -4 -4 -3 -4 -6 -5 -5 -5 -4 -5 -4 -4
-1 -2 -2 -2 -1 -1 -0 0 1 1 1 1 1 -0 -1 -1 -0 -1 -2 -4 -5 -5 -4 -6 -6 -6 -4 -5 -5 -4 -5 -5
-2 1 -1 -2 -2 -2 -1 -1 -1 -0 0 -0 -1 -1 -1 -2 -1 -2 -4 -4 -6 -5 -6 -6 -6 -5 -4 -5 -4 -4 -5 -5
-2 -2 -1 0 -1 -1 -1 -1 -1 -1 -1 -1 -1 -1 -2 -2 -2 -3 -3 -5 -5 -6 -7 -7 -6 -5 -4 -5 -4 -5 -5 -5
-2 -1 -0 -1 -1 -2 -1 -1 -1 -2 -2 -2 -2 -2 -2 -3 -3 -3 -3 -5 -7 -7 -7 -5 -5 -5 -7 -5 -4 -5 -5 -5
-2 -1 0 -1 -0 -1 -1 -2 -1 -2 -2 -2 -2 -2 -2 -3 -3 -4 -4 -5 -7 -7 -6 -5 -5 -5 -7 -5 -5 -5 -5 -6

GFSFLT1_700_temp_183.txt.gz
Temp
8 8 8 8 8 9 9 9 9 9 8 8 7 7 7 7 7 6 5 5 5 5 4 4 4 4 5 4 4 4 3 3
9 8 7 8 8 9 9 10 9 9 9 8 8 7 7 7 7 6 5 5 5 5 4 4 4 4 4 4 3 3 3 3
9 9 8 8 8 9 9 9 10 9 9 9 8 8 7 7 7 6 5 5 5 5 4 3 3 3 3 3 3 3 3 3
9 10 9 8 8 8 9 9 9 10 9 9 9 7 7 7 6 7 6 5 4 4 3 3 3 2 3 3 3 2 2 2
7 7 9 9 8 7 7 8 9 9 9 9 9 9 8 7 7 7 6 4 3 2 3 2 2 0 0 2 1 2 2 2
8 5 6 7 7 6 6 6 7 8 8 9 9 9 8 6 6 5 5 4 2 2 2 1 -0 -0 0 1 2 2 2 2
6 6 5 6 7 6 6 5 6 7 8 8 9 8 8 7 6 5 5 5 2 2 3 0 -0 -0 -0 1 1 1 1 1
3 4 4 4 5 6 6 6 6 6 6 7 8 8 8 7 6 4 4 4 3 2 2 -1 -2 -2 0 -0 0 1 1 1
2 2 2 3 3 4 5 6 6 6 6 7 7 7 7 6 5 4 3 3 2 2 1 1 -3 -1 -1 -1 -0 0 0 -0
2 2 1 2 3 3 4 6 5 6 6 6 6 7 7 6 4 3 3 2 2 2 1 -1 -5 -3 -2 -2 -2 -1 -1 -2
-1 -1 -0 1 2 3 4 5 5 5 5 6 6 6 5 4 3 3 3 2 2 2 0 -2 -5 -4 -2 -2 -2 -2 -3 -3
-3 -2 -2 -0 1 2 4 5 5 5 5 5 5 5 5 3 2 2 3 2 2 -0 -1 -2 -6 -4 -3 -4 -4 -4 -3 -3
-3 -4 -3 -3 -1 1 2 2 2 3 4 3 3 3 3 3 2 2 2 1 -2 -2 -2 -1 -7 -6 -6 -5 -5 -4 -4 -5
-4 -4 -4 -3 -2 -1 0 0 0 1 1 1 1 1 1 1 2 2 2 -1 -2 -2 -1 -3 -5 -7 -6 -5 -6 -5 -5 -5
-3 -3 -3 -3 -3 -3 -2 -1 -0 -0 -0 0 1 1 1 1 1 1 -0 -1 -1 -2 -2 -4 -6 -6 -6 -6 -6 -5 -5 -4
-1 -2 -2 -2 -2 -3 -2 -2 -1 -1 -0 -0 -0 0 0 0 -1 -2 -1 -1 -1 -3 -2 -3 -6 -6 -6 -6 -5 -5 -5 -5
-3 -2 -2 -2 -1 -2 -2 -2 -2 -2 -1 -1 -1 -1 -1 -2 -2 -1 -2 -2 -2 -4 -4 -4 -5 -6 -8 -6 -5 -6 -6 -5
-5 -4 -3 -2 -1 -1 -2 -2 -2 -2 -2 -1 -2 -1 -2 -2 -2 -2 -3 -2 -2 -3 -5 -5 -6 -6 -7 -6 -6 -6 -5 -5
-6 -5 -3 -2 -1 -1 -1 -2 -2 -2 -2 -2 -2 -2 -2 -2 -2 -3 -3 -3 -3 -3 -5 -5 -6 -7 -7 -6 -6 -7 -6 -5